This is the latest recevied weather packets stored in our database for station/object K5JLG-10. If no packets are shown the sender has not sent any weather packets the latest 10 day(s).
| Time | Temp. | Humidity | Pressure | Rain* | Wind** | Luminosity | Snow |
|---|---|---|---|---|---|---|---|
| 1777502957 | 16.67° C | 82% | 1013.4 hPa | 0 mm | - | - | - |
| 1777499956 | 17.78° C | 80% | 1013.4 hPa | 0 mm | - | - | - |
| 1777492756 | 18.33° C | 79% | 1014.2 hPa | 0 mm | - | - | - |
| 1777489775 | 17.78° C | 80% | 1014.2 hPa | 0 mm | - | - | - |
| 1777484476 | 16.67° C | 83% | 1015.9 hPa | 0 mm | - | - | - |
| 1777482678 | 16.67° C | 82% | 1016.1 hPa | 0 mm | - | - | - |
| 1777477277 | 16.11° C | 82% | 1016 hPa | 0 mm | - | - | - |
| 1777469477 | 16.11° C | 79% | 1015.4 hPa | 0 mm | - | - | - |
| 1777468898 | 16.11° C | 79% | 1015.3 hPa | 0 mm | - | - | - |
| 1777465278 | 16.11° C | 79% | 1014.8 hPa | 0 mm | - | - | - |
| 1777461677 | 16.67° C | 75% | 1014.1 hPa | 0 mm | - | - | - |
| 1777458678 | 17.78° C | 76% | 1013.8 hPa | 0 mm | - | - | - |
| 1777458077 | 17.78° C | 76% | 1013.9 hPa | 0 mm | - | - | - |
| 1777457497 | 17.78° C | 76% | 1013.6 hPa | 0 mm | - | - | - |
| 1777456297 | 17.78° C | 76% | 1013.3 hPa | 0 mm | - | - | - |
| 1777454497 | 18.33° C | 80% | 1013.5 hPa | 0 mm | - | - | - |
| 1777451476 | 19.44° C | 81% | 1012.8 hPa | 0 mm | - | - | - |
| 1777439476 | 21.67° C | 85% | 1013.1 hPa | 0 mm | - | - | - |
| 1777434676 | 23.89° C | 85% | 1011.9 hPa | 0 mm | - | - | - |
| 1777433496 | 24.44° C | 84% | 1011.9 hPa | 0 mm | - | - | - |
| 1777426316 | 25° C | 95% | 1009.4 hPa | 0 mm | - | - | - |
| 1777422676 | 26.67° C | 89% | 1008.8 hPa | 0 mm | - | - | - |
| 1777421476 | 26.67° C | 89% | 1008.8 hPa | 0 mm | - | - | - |
| 1777420876 | 26.11° C | 90% | 1008.6 hPa | 0 mm | - | - | - |
| 1777414896 | 27.22° C | 84% | 1009.3 hPa | 0.25 mm | - | - | - |
* Rain latest hour (hover to see other rain measurements)
** Current wind speed in m/s (hover to see current wind gust speed)